Cherry Point, NC

2:24 AM EST on December 03, 2016 (GMT -0500)
Cherry Point Marine Corps Air Station

Weather History for KNKT - April, 2012

Change the Weather History Date:

Wednesday, April 4, 2012

  Actual Average Record
Temperature  
Mean Temperature 70 °F -  
Max Temperature 81 °F 68 °F 84 °F (2007)
Min Temperature 61 °F 47 °F 41 °F (2016)
Cooling Degree Days 6    
Growing Degree Days 20 (Base 50)    
Moisture  
Dew Point 61 °F    
Average Humidity 73    
Maximum Humidity 88    
Minimum Humidity 48    
Precipitation  
Precipitation 0.00 in - - ()
Sea Level Pressure  
Sea Level Pressure 29.75 in    
Wind  
Wind Speed 6 mph ()    
Max Wind Speed 15 mph    
Max Gust Speed 22 mph    
Visibility 9.8 miles    
Events      
Averages and records for this station are not official NWS values.
T = Trace of Precipitation, MM = Missing Value Source: Averaged Metar Reports

Daily Weather History Graph

Daily Weather History Graph

Search for Another Location

Airport or City:

Trip Planner

Search our weather history database for the weather conditions in past years. The results will help you decide how hot, cold, wet, or windy it might be!

Date:

Astronomy

Apr. 04, 2012 Rise Set
Actual Time 6:49 AM EDT 7:31 PM EDT
Civil Twilight 6:24 AM EDT 7:57 PM EDT
Nautical Twilight 5:53 AM EDT 8:27 PM EDT
Astronomical Twilight 5:23 AM EDT 8:58 PM EDT
Moon 5:26 PM EDT (4/4) 5:05 AM EDT (4/4)
Length of Visible Light 13h 33m
Length of Day
12h 41m
Waxing Gibbous, 93% of the Moon is Illuminated
Apr 4
Waxing Gibbous
Apr 6
Full
Apr 13
Last Quarter
Apr 21
New
Apr 29
First Quarter

Hourly Weather History & Observations

Time (EDT) Temp. Heat Index Dew Point Humidity Pressure Visibility Wind Dir Wind Speed Gust Speed Precip Events Conditions
12:54 AM 61.0 °F - 54.0 °F 78% 29.89 in 10.0 mi SSW 3.5 mph - N/A   Clear
1:54 AM 63.0 °F - 57.0 °F 81% 29.88 in 10.0 mi SSW 6.9 mph - N/A   Mostly Cloudy
2:54 AM 64.9 °F - 59.0 °F 81% 29.85 in 10.0 mi SSW 6.9 mph - N/A   Mostly Cloudy
3:54 AM 66.9 °F - 61.0 °F 81% 29.84 in 10.0 mi SW 10.4 mph - N/A   Overcast
4:54 AM 66.9 °F - 61.0 °F 81% 29.82 in 10.0 mi SSW 5.8 mph - N/A   Overcast
5:35 AM 66.2 °F - 62.6 °F 88% 29.82 in 10.0 mi South 6.9 mph - N/A   Scattered Clouds
5:54 AM 66.0 °F - 62.1 °F 87% 29.81 in 10.0 mi South 5.8 mph - N/A   Partly Cloudy
6:54 AM 66.0 °F - 62.1 °F 87% 29.82 in 9.0 mi WSW 6.9 mph - N/A   Partly Cloudy
7:54 AM 66.9 °F - 63.0 °F 87% 29.81 in 9.0 mi SW 9.2 mph - N/A   Mostly Cloudy
8:54 AM 68.0 °F - 60.1 °F 76% 29.81 in 10.0 mi WSW 9.2 mph - N/A   Mostly Cloudy
9:54 AM 69.1 °F - 60.1 °F 73% 29.80 in 10.0 mi WSW 8.1 mph - N/A   Mostly Cloudy
10:54 AM 71.1 °F - 60.1 °F 68% 29.79 in 10.0 mi Calm Calm - N/A   Mostly Cloudy
11:54 AM 73.9 °F - 60.1 °F 62% 29.77 in 10.0 mi WSW 4.6 mph - N/A   Clear
12:54 PM 77.0 °F - 59.0 °F 54% 29.75 in 10.0 mi WSW 12.7 mph 16.1 mph N/A   Clear
1:54 PM 80.1 °F 80.7 °F 59.0 °F 48% 29.72 in 10.0 mi SW 11.5 mph - N/A   Clear
2:54 PM 80.1 °F 80.9 °F 60.1 °F 50% 29.69 in 10.0 mi SSW 11.5 mph 18.4 mph N/A   Clear
3:54 PM 79.0 °F - 60.1 °F 52% 29.66 in 10.0 mi SSW 13.8 mph - N/A   Clear
4:54 PM 78.1 °F - 60.1 °F 54% 29.64 in 10.0 mi SW 13.8 mph 21.9 mph N/A   Scattered Clouds
5:54 PM 75.9 °F - 60.1 °F 58% 29.62 in 10.0 mi SW 15.0 mph 20.7 mph N/A   Clear
6:54 PM 73.0 °F - 61.0 °F 66% 29.65 in 10.0 mi South 10.4 mph - N/A   Clear
7:54 PM 69.1 °F - 62.1 °F 78% 29.67 in 10.0 mi SSW 8.1 mph - N/A   Clear
8:54 PM 66.9 °F - 62.1 °F 84% 29.70 in 10.0 mi WSW 4.6 mph - N/A   Partly Cloudy
9:54 PM 66.9 °F - 63.0 °F 87% 29.71 in 9.0 mi Calm Calm - N/A   Scattered Clouds
10:54 PM 66.9 °F - 63.0 °F 87% 29.68 in 9.0 mi Calm Calm - N/A   Mostly Cloudy
11:54 PM 68.0 °F - 63.0 °F 84% 29.65 in 10.0 mi Calm Calm - N/A   Clear